AD8BW Weather Reports


time (UTC)temp
F
wind
direction
speed
knots
gust
knots
rain 1hr
in
rain 24hr
in
rain mn
in
humidity
%
barometer
mb
20260503032139 39 207 0.0 3.5 0.00 0.00 0.00 68 1014.3
20260503031137 39 292 0.0 0.0 0.00 0.00 0.00 70 1014.3
20260503030136 39 320 0.0 0.0 0.00 0.00 0.00 70 1014.4
20260503025135 38 320 0.0 0.0 0.00 0.00 0.00 71 1014.5
20260503024137 38 337 0.0 0.0 0.00 0.00 0.00 74 1014.5
20260503023136 38 337 0.0 0.0 0.00 0.00 0.00 72 1014.6
20260503022135 38 337 0.0 0.0 0.00 0.00 0.00 71 1014.7
20260503021133 39 337 0.0 0.0 0.00 0.00 0.00 70 1014.6
20260503020135 39 337 0.0 0.0 0.00 0.00 0.00 66 1014.5
20260503015133 39 337 0.0 1.7 0.00 0.00 0.00 66 1014.6
20260503014128 39 337 0.0 1.7 0.00 0.00 0.00 67 1014.6
20260503013127 40 338 0.0 0.0 0.00 0.00 0.00 66 1014.5
20260503012129 40 338 0.0 0.0 0.00 0.00 0.00 63 1014.5
20260503011126 40 338 0.0 0.0 0.00 0.00 0.00 62 1014.4
20260503010131 41 338 0.0 0.0 0.00 0.00 0.00 60 1014.5
20260503005126 41 338 0.0 0.0 0.00 0.00 0.00 59 1014.4
20260503004137 43 338 0.0 0.0 0.00 0.00 0.00 56 1014.3
20260503003126 44 338 0.0 0.0 0.00 0.00 0.00 51 1014.3
20260503002125 44 338 0.0 3.5 0.00 0.00 0.00 50 1014.3
20260503001124 44 334 0.0 3.5 0.00 0.00 0.00 50 1014.2
20260503000123 45 229 0.0 3.5 0.00 0.00 0.00 51 1014.2
20260502235120 45 225 0.0 3.5 0.00 0.00 0.00 50 1014.3
20260502234120 46 335 0.0 3.5 0.00 0.00 0.00 47 1014.3
20260502233122 46 310 0.0 3.5 0.00 0.00 0.00 47 1014.4
20260502232119 46 335 0.0 3.5 0.00 0.00 0.00 48 1014.4
20260502231122 46 323 0.0 4.3 0.00 0.00 0.00 47 1014.5
20260502230115 46 296 1.7 3.5 0.00 0.00 0.00 46 1014.5
20260502225114 46 298 0.0 3.5 0.00 0.00 0.00 47 1014.6
20260502224116 46 175 1.7 3.5 0.00 0.00 0.00 47 1014.6
20260502223113 46 277 1.7 4.3 0.00 0.00 0.00 47 1014.6
20260502222115 46 266 1.7 4.3 0.00 0.00 0.00 46 1014.6
20260502221118 46 332 1.7 4.3 0.00 0.00 0.00 48 1014.7
20260502220118 46 284 3.5 6.1 0.00 0.00 0.00 45 1014.7
20260502215113 46 289 1.7 9.6 0.00 0.00 0.00 46 1014.7
20260502214116 46 291 1.7 6.1 0.00 0.00 0.00 47 1014.7
20260502213110 46 263 1.7 4.3 0.00 0.00 0.00 47 1014.7
20260502212110 46 265 1.7 7.8 0.00 0.00 0.00 47 1014.7
20260502211108 46 0 1.7 6.1 0.00 0.00 0.00 49 1014.7
20260502210110 46 188 1.7 9.6 0.00 0.00 0.00 48 1014.8
20260502205106 46 327 3.5 9.6 0.00 0.00 0.00 49 1014.7
20260502204107 45 340 3.5 6.1 0.00 0.00 0.00 49 1014.9
20260502203106 45 275 1.7 7.8 0.00 0.00 0.00 49 1015.0
20260502202104 45 286 1.7 9.6 0.00 0.00 0.00 49 1015.0
20260502201107 46 325 3.5 9.6 0.00 0.00 0.00 50 1015.1
20260502200106 46 0 3.5 10.4 0.00 0.00 0.00 49 1015.2
20260502195102 46 325 1.7 10.4 0.00 0.00 0.00 49 1015.4
20260502194101 47 344 1.7 7.8 0.00 0.00 0.00 49 1015.4
20260502193104 45 239 1.7 9.6 0.00 0.00 0.00 50 1015.6
20260502192101 45 351 1.7 7.8 0.00 0.00 0.00 48 1015.6
20260502191100 45 333 1.7 9.6 0.00 0.00 0.00 50 1015.7
20260502190104 46 345 1.7 6.1 0.00 0.00 0.00 49 1015.8
20260502185104 46 267 3.5 7.8 0.00 0.00 0.00 48 1015.8
20260502184102 46 300 3.5 6.1 0.00 0.00 0.00 49 1015.9
20260502183100 45 348 3.5 6.1 0.00 0.00 0.00 50 1016.0
20260502182103 45 194 3.5 6.1 0.00 0.00 0.00 50 1016.0
20260502181102 44 323 3.5 10.4 0.00 0.00 0.00 52 1016.1
20260502164059 43 268 3.5 7.8 0.00 0.00 0.00 49 1016.4
20260502163056 44 334 4.3 15.6 0.00 0.00 0.00 49 1016.4
20260502162058 44 267 3.5 9.6 0.00 0.00 0.00 50 1016.4
20260502161058 42 327 3.5 9.6 0.00 0.00 0.00 51 1016.5
20260502160123 43 275 3.5 7.8 0.00 0.00 0.00 50 1016.6
20260502152053 41 355 3.5 9.6 0.00 0.00 0.00 54 1016.6
20260502151051 41 293 3.5 9.6 0.00 0.00 0.00 55 1016.5
20260502123044 37 332 3.5 6.1 0.00 0.00 0.00 76 1016.6
20260502122044 37 253 1.7 6.1 0.00 0.00 0.00 78 1016.6
20260502121043 37 292 1.7 6.1 0.00 0.00 0.00 81 1016.6
20260502115046 36 304 1.7 4.3 0.00 0.00 0.00 86 1016.5
20260502114040 36 293 1.7 6.1 0.00 0.00 0.00 87 1016.5
20260502113034 35 0 0.0 4.3 0.00 0.00 0.00 89 1016.4
20260502112038 34 49 0.0 0.0 0.00 0.00 0.00 90 1016.3
20260502111034 34 49 0.0 0.0 0.00 0.00 0.00 90 1016.3
20260502110036 34 49 0.0 0.0 0.00 0.00 0.00 90 1016.3
20260502105030 33 49 0.0 0.0 0.00 0.00 0.00 90 1016.2
20260502104032 33 49 0.0 0.0 0.00 0.00 0.00 90 1016.1
20260502103031 32 49 0.0 0.0 0.00 0.00 0.00 89 1016.1
20260502102031 33 49 0.0 0.0 0.00 0.00 0.00 89 1016.0
20260502101032 33 49 0.0 0.0 0.00 0.00 0.00 88 1016.0
20260502091030 35 49 0.0 0.0 0.00 0.00 0.00 85 1015.8
20260502071017 36 49 0.0 0.0 0.00 0.00 0.00 78 1015.5
20260502070017 36 49 0.0 0.0 0.00 0.00 0.00 79 1015.7
20260502065019 36 49 0.0 0.0 0.00 0.00 0.00 81 1015.7
20260502064019 36 49 0.0 0.0 0.00 0.00 0.00 80 1015.8
20260502063018 36 49 0.0 0.0 0.00 0.00 0.00 79 1015.9
20260502062020 36 49 0.0 0.0 0.00 0.00 0.00 79 1016.0
20260502061017 36 49 0.0 0.0 0.00 0.00 0.00 78 1016.1
20260502060018 36 49 0.0 0.0 0.00 0.00 0.00 79 1016.2
20260502055020 37 49 0.0 0.0 0.00 0.00 0.00 78 1016.1
20260502054013 37 49 0.0 0.0 0.00 0.00 0.00 79 1016.2
20260502053012 36 49 0.0 0.0 0.00 0.00 0.00 79 1016.3
20260502052015 36 49 0.0 0.0 0.00 0.00 0.00 80 1016.2
20260502051013 36 40 0.0 0.0 0.00 0.00 0.00 81 1016.1
20260502050014 37 40 0.0 1.7 0.00 0.00 0.00 81 1016.0
20260502045012 37 40 0.0 3.5 0.00 0.00 0.00 81 1015.9
20260502044010 37 50 0.0 0.0 0.00 0.00 0.00 81 1015.9
20260502043010 37 56 0.0 0.0 0.00 0.00 0.00 80 1015.7
20260502042011 37 59 0.0 3.5 0.00 0.00 0.00 79 1015.8
20260502041001 37 86 0.0 3.5 0.00 0.00 0.00 79 1015.7
20260502040004 37 69 0.0 0.0 0.00 0.00 0.00 78 1015.7
20260502035001 37 88 0.0 0.0 0.00 0.00 0.00 79 1015.7
20260502034005 37 88 0.0 0.0 0.00 0.00 0.00 78 1015.5
20260502033004 37 88 0.0 0.0 0.00 0.00 0.00 78 1015.5